Location: Czu?�w
(50.1404°N, 18.9919°E)
Time: 11:48:48
(UTC+00:00)

ATLAS 5 CENTAUR R/B - Pass Details

Date: 27 October 2020
Orbit: 531 x 1127 km, 63.4° (Epoch: 22 November)

Event Time Altitude Azimuth Distance (km) Brightness Sun altitude
Rises 18:49:43 0° 308° (NW) 3,008 6.1 -32.4°
Reaches altitude 10° 18:52:26 10° 325° (NW) 2,191 5.0 -32.9°
Enters shadow 18:54:53 19° 353° (N) 1,733 4.0 -33.2°
